Weather in Sreznevo

Russia / Ryazan Oblast     54°46′44″N   39°22′06″E
temp.,
°C
wind,
m/s
gust,
m/s
humid.,
%
clouds,
%
prec.,
mm/h
press.,
hPa
HPBL,
m
2 march, tue
tue200:00+1w61392100 0.0 1015640
03:00+1w61394100 0.0 1013619
06:00+1w71494100 0.0 1010643
09:00+1wnw71497100 0.1 1009713
12:00+1nw61297100 0.2 1008747
15:00+1nw6129298 0.3 1008832
18:000nw5128899 0.1 1008559
21:00−1nw5128897 0.2 1010489
3 march, wed
wed300:00−2nw61391100 0.1 1010673
03:00−4nw7139399 0.2 1012646
06:00−6nw6149065 0.0 1013559
09:00−6nw7148873 0.0 1015680
12:00−3nw6118414 0.0 1015809
15:00−1wnw7119123 0.1 1015984
18:00−2wnw6128999 0.1 1014604
21:00−2w61294100 0.3 1015603
4 march, thu
thu400:00−2w5119095 0.1 1013475
03:00−2wsw6129096 0.1 1011624
06:00−1wsw81588100 0.0 1008494
09:00−1wsw91787100 0.0 1005664
12:00+1wsw91681100 0.0 1002931
15:00+1wsw81591100 0.0 1000984
18:00+1w71391100 0.0 999796
21:000w61294100 0.1 1000525
5 march, fri
fri500:00−3nw3485100 0.4 100182
03:00−5nw359099 0.4 1003133
06:00−6nnw3492100 0.0 100595
09:00−7nnw2393100 0.0 100799
12:00−4n1185100 0.0 1007310
15:00−3ene1183100 0.0 1008390
18:00−5ene1190100 0.0 100721
21:00−6n2290100 0.0 100824
6 march, sat
sat600:00−7n3493100 0.0 100871
03:00−9nnw349490 0.0 100951
06:00−10nw349424 0.0 101064
09:00−9nw359337 0.0 1010230
12:00−6nw468894 0.1 1011654
15:00−6nw578097 0.2 1011934
18:00−8wnw348579 0.0 101148
21:00−10wsw349062 0.0 101252